Theta_e
311 310 310 310 310 310 310 310 310 310 310 311 311 311 312 312 312 313 313 313 313 312 315 316 316 316 316 317 318 318 320 320 319 318 318 317 318 314 316 316 315 317 317 318 317
310 310 310 311 311 311 311 311 311 311 311 311 311 311 311 312 312 313 314 313 312 312 315 316 315 316 318 318 318 320 320 319 318 317 317 317 317 317 317 318 318 317 316 316 317
311 312 312 312 312 312 312 312 312 312 312 311 311 311 312 312 312 313 314 314 313 313 315 315 315 316 318 318 319 319 320 320 317 315 314 316 317 316 317 318 318 318 317 316 316
312 312 312 312 312 311 312 312 312 312 312 312 312 312 312 312 314 313 315 313 313 313 314 315 315 317 319 320 318 319 319 318 318 316 316 317 317 317 316 316 316 316 316 315 315
311 311 312 312 313 313 313 313 313 313 312 312 311 311 311 311 313 313 313 313 313 313 314 315 316 317 318 318 316 318 318 318 317 316 316 317 317 317 316 316 316 316 314 314 314
315 315 316 316 316 316 316 317 317 317 317 316 315 313 311 310 313 314 314 313 313 313 314 314 315 315 316 316 317 316 316 316 315 315 315 315 316 315 315 315 314 314 314 314 314
315 316 316 316 316 315 315 315 316 315 315 316 316 315 314 314 314 313 313 314 313 313 314 314 314 314 314 315 313 313 315 315 315 314 314 313 315 315 315 314 313 314 314 314 314
318 319 319 319 319 318 318 317 316 316 314 313 313 313 313 316 316 314 311 311 312 313 314 314 314 314 313 312 313 314 313 315 316 312 312 314 315 316 314 312 313 313 313 313 314
321 322 322 322 322 321 322 321 320 319 317 312 310 311 312 313 313 313 310 309 311 312 313 313 313 313 311 314 315 314 315 315 315 313 312 314 314 314 313 312 312 313 313 313 313
324 323 323 323 323 324 323 323 323 318 313 310 309 310 311 312 312 312 311 310 311 311 311 311 312 314 312 314 317 317 316 315 314 315 313 313 313 313 312 312 312 312 313 313 313
325 323 323 323 323 323 323 323 321 317 316 316 315 313 314 313 311 312 312 311 311 311 314 311 314 316 317 315 316 313 313 314 314 314 313 313 313 313 313 313 313 313 313 313 313
324 324 323 323 322 322 323 323 320 318 314 322 322 320 318 312 311 311 311 312 312 314 310 312 315 316 312 312 312 313 313 314 315 313 310 313 313 313 313 313 313 313 312 312 311
324 324 323 323 322 322 323 322 322 318 312 317 316 313 313 312 311 311 311 311 312 312 312 316 316 313 311 313 313 314 313 315 315 313 312 311 316 314 315 311 312 311 311 310 309
322 322 322 323 321 322 322 322 321 315 320 319 312 309 308 308 308 308 310 311 311 313 311 313 310 311 311 312 313 314 314 312 312 312 317 311 318 317 316 314 313 312 311 309 308
319 321 322 321 320 320 322 322 321 314 326 317 309 309 310 308 307 308 309 310 312 311 311 314 311 310 312 313 311 314 309 309 309 312 311 314 313 318 312 313 313 311 308 308 305
319 320 320 319 319 319 322 321 319 321 326 320 308 310 310 308 307 308 308 309 308 310 309 312 306 309 312 309 309 307 310 309 310 312 316 315 314 316 315 313 312 308 305 303 302
315 315 314 314 317 321 321 321 321 323 319 321 313 309 308 308 309 308 311 311 314 316 317 314 310 309 307 311 308 309 312 319 318 319 319 312 312 314 314 309 308 306 303 301 301
313 312 314 316 314 318 320 321 321 319 321 315 315 315 320 315 313 309 311 317 310 310 314 318 320 311 308 313 318 312 314 318 319 321 320 308 315 316 311 306 303 302 300 299 299
309 309 309 310 311 318 319 320 317 317 318 319 319 320 320 316 315 313 312 315 312 310 318 321 320 307 306 307 310 311 311 312 315 315 315 315 315 315 313 306 303 300 299 297 297
308 308 307 308 309 315 317 316 315 315 317 318 320 319 320 319 317 317 317 313 313 309 309 315 319 316 311 306 307 309 310 313 312 315 318 314 314 315 313 308 302 299 297 296 295
304 303 305 305 308 314 314 314 313 314 316 318 319 319 318 318 317 318 318 316 313 314 308 313 316 316 311 313 313 311 310 309 309 312 316 317 315 310 309 303 300 297 295 295 295
299 305 305 310 312 312 313 312 312 313 313 315 316 317 317 317 316 315 315 315 314 311 314 312 312 315 315 313 309 311 312 313 316 315 314 314 314 304 302 299 296 293 293 293 293
300 303 310 310 311 312 312 312 312 312 313 313 313 314 314 314 314 313 313 312 312 313 314 313 315 316 315 312 310 312 312 312 313 314 316 317 315 301 299 298 296 297 294 293 292
301 304 307 310 310 310 310 310 312 310 311 311 312 312 313 313 313 312 311 311 309 309 308 309 312 314 314 313 311 312 311 311 311 313 313 313 312 310 305 301 298 295 293 293 291
298 300 302 308 308 308 307 308 308 308 307 308 308 310 309 309 308 309 309 309 308 306 306 308 312 311 311 311 311 311 311 310 310 309 309 309 309 308 308 300 295 292 291 293 289
296 298 299 300 301 304 306 306 306 305 306 305 305 305 305 305 305 306 306 306 305 305 306 305 307 306 306 306 306 307 307 307 305 304 304 303 304 303 294 292 292 291 290 292 289
295 295 296 296 298 301 302 302 302 301 299 297 299 301 302 302 299 299 299 299 301 301 302 303 304 305 305 305 303 303 302 302 302 303 302 302 300 294 292 292 292 291 290 291 289
Wind_Speed
5 6 6 7 7 8 8 8 9 8 8 9 9 10 11 12 14 15 17 10 6 8 8 7 6 6 5 4 4 4 4 5 4 4 2 3 4 3 6 11 9 12 18 17 22
7 7 8 9 9 9 10 9 10 10 10 10 11 11 12 14 17 18 0 4 2 4 9 9 8 8 3 3 3 5 4 5 4 5 7 8 6 9 7 17 22 18 20 19 20
9 10 10 11 12 12 12 12 12 12 12 12 12 13 13 14 16 3 2 3 3 4 9 10 8 8 5 4 7 5 7 7 9 15 10 10 12 7 11 17 17 20 24 19 24
11 12 13 14 14 15 15 15 15 15 15 14 14 14 14 11 6 3 4 14 14 8 11 11 9 5 5 6 7 6 14 13 9 9 5 9 9 13 18 33 31 29 26 28 27
11 12 13 13 14 15 15 16 16 16 16 16 15 16 15 7 15 17 19 16 10 9 12 13 12 7 7 5 4 9 12 13 16 13 15 17 27 20 27 29 32 28 27 28 28
9 10 11 12 13 14 15 16 17 16 16 16 16 16 16 9 13 10 10 11 11 12 14 15 9 13 5 7 9 3 8 14 12 18 16 11 29 11 16 15 23 23 26 25 23
7 8 9 10 11 12 14 16 17 17 17 17 16 15 19 24 20 21 21 17 15 14 16 17 15 8 4 5 4 4 11 15 17 13 8 9 14 16 25 13 20 27 24 27 34
5 7 9 10 11 12 13 15 16 17 16 16 15 14 13 17 16 19 20 21 14 14 15 14 13 12 6 1 2 5 4 10 7 5 4 9 20 21 18 11 21 28 34 35 35
5 6 7 9 11 12 14 16 17 16 16 13 10 10 9 12 11 14 16 16 12 14 12 8 11 6 3 5 7 5 11 14 16 4 3 10 14 18 25 26 37 36 36 33 31
6 8 9 11 12 13 14 16 15 13 9 5 4 4 13 9 7 8 8 10 8 10 9 7 4 5 3 7 11 15 13 11 12 14 11 17 20 21 33 31 35 37 35 26 24
8 9 10 11 12 13 14 13 7 4 3 7 10 16 20 15 10 9 7 11 12 8 7 5 6 11 17 18 19 10 14 18 23 20 16 20 19 18 31 30 33 32 22 20 18
12 13 11 11 11 12 11 6 6 7 11 16 23 25 28 24 8 8 9 9 7 5 8 5 11 19 4 6 11 13 14 21 16 15 3 14 19 23 18 17 19 18 17 13 13
13 14 12 12 12 10 8 8 11 11 5 10 15 12 9 12 8 10 12 6 5 8 12 16 11 6 8 12 14 13 14 17 16 13 13 11 13 5 9 13 7 6 5 11 18
15 14 13 12 10 6 7 9 10 11 5 4 2 2 2 5 3 5 14 5 3 6 6 7 2 5 7 11 12 13 10 15 11 6 10 8 11 8 7 9 3 10 19 16 20
15 13 13 8 8 9 6 8 8 6 7 2 2 2 3 3 4 1 9 5 4 5 5 2 6 5 5 7 9 5 2 2 1 6 7 3 7 1 2 2 7 14 17 18 19
13 11 12 11 8 5 2 2 4 4 8 1 3 2 3 1 1 2 2 2 2 3 3 11 2 4 4 2 3 4 1 1 0 3 8 4 7 3 3 3 6 13 15 16 18
8 8 7 7 4 4 3 1 3 6 2 4 3 2 1 3 3 4 5 5 4 5 12 3 5 3 4 6 2 5 3 7 6 6 12 4 6 8 7 8 7 10 13 19 19
9 9 8 7 6 7 4 2 9 6 8 1 1 1 3 1 1 0 3 9 7 4 8 9 16 8 7 9 6 9 7 6 8 15 17 6 10 8 11 15 16 17 17 18 20
12 13 15 11 8 9 7 7 5 5 5 4 2 5 6 1 3 2 3 6 4 9 8 11 15 3 4 1 2 6 7 3 7 6 8 16 23 17 9 11 12 14 14 17 19
14 15 18 13 13 14 5 14 9 6 2 0 8 5 7 7 5 1 2 1 3 4 2 2 9 3 2 2 5 8 3 8 5 8 20 17 20 13 7 5 7 9 11 12 13
14 7 8 18 20 16 9 9 10 15 6 4 7 9 9 7 8 7 7 7 5 5 5 6 7 16 3 9 19 10 8 6 5 6 7 10 13 7 3 4 5 5 8 12 15
11 3 11 22 10 7 11 5 11 15 8 4 5 11 13 11 10 10 13 13 4 3 10 10 4 9 22 13 5 4 12 14 10 11 13 14 18 2 3 6 6 4 2 3 7
10 6 15 26 7 9 5 11 18 12 10 4 6 4 2 4 6 11 12 5 4 5 4 2 4 5 6 6 3 6 8 16 16 4 13 9 3 7 6 6 4 2 4 2 3
9 4 7 18 10 10 13 15 16 7 10 11 10 8 8 12 10 10 10 2 1 1 1 3 5 13 17 18 12 9 9 12 14 8 14 17 24 20 11 6 3 4 3 3 2
8 3 5 5 9 9 9 5 5 4 3 2 2 6 4 6 6 11 9 4 2 2 2 4 7 14 13 15 17 17 15 18 20 17 10 21 20 20 16 6 4 3 4 4 5
7 5 5 3 3 7 13 15 18 14 10 11 13 13 10 10 13 17 12 10 13 5 4 3 7 15 23 22 20 19 18 21 19 20 23 26 27 19 3 3 5 4 6 7 8
7 7 5 5 5 5 5 7 2 4 2 4 2 2 4 5 0 3 6 8 8 5 11 9 6 9 20 13 14 11 17 19 21 24 24 23 14 5 1 4 7 7 9 10 10
Wind_Direction
327 331 337 339 339 337 336 335 331 330 328 326 328 327 327 324 318 313 306 283 266 232 227 214 205 197 196 209 188 162 237 256 255 223 274 208 252 214 250 269 262 247 256 278 293
315 320 322 322 322 322 321 320 319 318 317 316 318 318 320 322 319 313 215 91 125 220 219 214 207 195 189 183 193 220 233 252 227 232 265 280 264 283 274 276 269 272 277 292 291
305 308 309 310 311 312 311 311 310 309 309 309 311 311 315 324 323 196 139 29 4 313 215 210 211 196 209 192 198 192 245 248 243 249 262 277 273 253 266 275 275 286 294 292 291
294 297 300 302 304 306 305 305 304 304 303 303 304 303 306 316 300 181 257 302 302 270 219 206 199 190 219 218 200 230 243 242 264 244 237 265 280 256 254 267 282 286 289 289 289
284 290 295 297 299 302 303 302 301 300 298 297 296 295 298 284 263 277 281 281 266 237 223 217 203 202 225 222 206 236 257 251 249 250 253 269 266 267 269 272 284 286 291 296 296
280 284 288 293 298 303 302 299 299 298 295 292 291 289 286 250 275 278 264 257 243 229 223 219 225 228 250 229 221 310 273 273 271 256 251 245 272 296 265 283 290 292 292 292 287
285 290 295 298 304 306 308 305 304 302 298 291 286 280 273 265 272 271 271 259 245 238 233 233 232 207 197 252 261 311 295 291 265 256 245 226 269 240 278 284 283 289 292 295 290
294 301 306 310 313 313 312 307 305 302 296 287 276 268 259 272 263 256 257 256 242 230 233 234 228 232 239 221 282 258 262 284 297 148 209 190 278 289 308 308 298 294 291 288 291
274 288 302 310 314 317 319 314 309 302 296 289 263 229 263 262 259 259 252 244 240 226 218 216 193 209 218 236 273 222 273 270 295 232 147 210 283 297 298 298 291 290 287 295 300
282 294 305 312 317 321 329 324 313 299 293 288 252 225 247 262 275 261 248 216 196 183 154 162 159 221 188 212 258 281 280 265 272 292 283 286 272 283 290 286 280 291 297 303 301
275 286 300 313 314 322 332 345 342 323 313 272 268 262 281 281 264 267 218 177 156 163 184 153 200 224 245 232 250 290 282 284 278 285 296 290 299 294 282 287 286 286 305 307 321
261 273 284 300 316 328 337 4 350 302 296 278 274 260 255 257 264 252 182 178 179 191 131 161 223 231 280 262 252 260 268 271 282 283 263 287 300 293 295 271 277 298 303 330 10
258 272 279 296 315 325 342 345 336 328 255 274 257 258 262 251 235 239 185 196 178 180 203 239 265 243 219 256 258 253 258 273 272 320 275 301 280 251 280 268 327 322 320 53 40
263 270 276 297 310 330 343 341 340 340 268 242 224 243 200 191 200 214 197 195 198 257 193 243 317 228 209 246 250 273 268 265 280 307 298 14 304 294 263 276 358 43 61 41 24
264 268 271 272 280 303 317 335 342 350 285 75 156 174 168 201 136 95 186 191 234 184 193 238 171 168 195 223 182 258 55 349 348 283 300 287 267 2 253 225 131 63 49 34 33
258 258 261 261 257 267 256 320 339 247 239 278 159 160 132 45 36 95 112 130 154 213 241 265 340 234 235 157 188 136 139 107 257 272 265 297 224 346 134 76 77 92 58 47 34
253 253 250 255 203 170 183 156 259 224 332 186 176 153 182 177 178 185 164 180 242 291 280 280 216 220 211 235 139 212 261 285 257 242 267 137 227 250 253 63 62 54 62 50 37
243 250 241 212 191 206 185 194 237 215 227 10 96 102 270 333 170 308 273 280 209 221 282 273 281 197 170 227 264 196 209 237 274 274 283 93 261 277 102 73 62 54 47 37 35
246 245 244 232 231 211 192 227 249 225 216 248 194 268 265 319 248 208 234 276 286 199 248 295 270 119 199 179 268 156 207 283 269 264 281 265 259 263 150 75 65 53 41 32 26
253 252 250 223 204 203 224 243 242 221 130 262 229 211 261 254 214 4 289 167 258 204 213 333 290 276 339 180 218 245 330 250 221 258 254 253 259 256 205 105 73 44 33 28 23
235 229 226 200 187 176 216 224 254 235 242 231 248 255 254 266 256 261 234 266 238 238 211 292 245 272 179 240 269 247 242 232 268 255 263 262 252 343 344 132 86 45 23 14 9
196 196 186 173 180 195 231 208 232 268 275 253 279 263 264 271 265 264 257 244 231 252 271 252 266 245 267 288 270 259 259 242 246 247 240 263 264 108 148 150 149 160 110 24 14
177 163 171 178 207 213 217 231 246 239 247 243 249 218 182 261 274 248 257 246 279 209 256 138 240 281 258 236 189 212 235 250 259 274 241 258 226 186 186 188 185 179 219 248 353
165 153 178 203 228 223 228 248 247 246 243 236 253 245 258 257 244 270 271 287 354 221 178 29 239 248 260 271 315 266 254 269 274 261 272 262 276 277 224 236 252 245 254 275 332
171 193 172 190 223 235 231 242 234 245 269 227 258 246 269 265 289 258 277 309 268 300 244 203 266 262 264 270 271 270 269 266 260 264 260 280 281 275 280 288 256 274 305 290 330
165 152 169 159 166 186 214 240 251 255 257 258 258 269 281 260 259 281 290 263 267 274 267 266 269 281 273 274 266 263 261 256 268 268 264 264 265 278 4 176 239 266 307 268 311
177 162 153 152 163 175 209 221 174 170 158 65 87 320 239 266 329 298 248 261 261 265 277 265 270 269 272 279 298 265 241 254 262 265 269 273 295 88 110 260 264 266 281 255 298